Previsão horária em Alkino

Hoje, 25 Junho, Sexta-feira

Tempo Temperatura Precipitação Vento Pressão Humidade
00:00 +21°C° 0.1 mm 1 m/s 756 mmHg 88%
01:00 +21°C° 0.1 mm 1 m/s 756 mmHg 89%
02:00 +21°C° 0.1 mm 1 m/s 755 mmHg 89%
03:00 +21°C° 0 mm 1 m/s 755 mmHg 90%
04:00 +22°C° 0 mm 1 m/s 755 mmHg 86%
05:00 +23°C° 0 mm 1 m/s 755 mmHg 82%
06:00 +24°C° 0 mm 1 m/s 755 mmHg 78%
07:00 +26°C° 0 mm 2 m/s 755 mmHg 74%
08:00 +28°C° 0 mm 2 m/s 755 mmHg 69%
09:00 +29°C° 0 mm 3 m/s 755 mmHg 65%
10:00 +31°C° 0.1 mm 3 m/s 754 mmHg 60%
11:00 +33°C° 0.1 mm 3 m/s 754 mmHg 56%
12:00 +34°C° 0.1 mm 3 m/s 754 mmHg 51%
13:00 +34°C° 0 mm 3 m/s 754 mmHg 50%
14:00 +35°C° 0 mm 4 m/s 754 mmHg 50%
15:00 +35°C° 0 mm 4 m/s 754 mmHg 50%
16:00 +34°C° 0 mm 4 m/s 753 mmHg 55%
17:00 +33°C° 0 mm 3 m/s 753 mmHg 61%
18:00 +31°C° 0 mm 3 m/s 753 mmHg 67%
19:00 +30°C° 0 mm 3 m/s 753 mmHg 71%
20:00 +28°C° 0 mm 2 m/s 753 mmHg 75%
21:00 +26°C° 0 mm 2 m/s 753 mmHg 79%
22:00 +26°C° 0 mm 2 m/s 753 mmHg 80%
23:00 +25°C° 0 mm 1 m/s 753 mmHg 82%

Amanhã, 26 Junho, Sábado

Tempo Temperatura Precipitação Vento Pressão Humidade
00:00 +25°C° 0 mm 1 m/s 753 mmHg 83%
01:00 +24°C° 0 mm 1 m/s 753 mmHg 85%
02:00 +24°C° 0 mm 1 m/s 753 mmHg 87%
03:00 +23°C° 0 mm 1 m/s 753 mmHg 89%
04:00 +24°C° 0 mm 1 m/s 753 mmHg 85%
05:00 +26°C° 0 mm 2 m/s 753 mmHg 81%
06:00 +27°C° 0 mm 2 m/s 753 mmHg 76%
07:00 +28°C° 0 mm 3 m/s 753 mmHg 69%
08:00 +30°C° 0 mm 3 m/s 753 mmHg 62%
09:00 +32°C° 0 mm 4 m/s 753 mmHg 54%
10:00 +33°C° 0 mm 4 m/s 753 mmHg 52%
11:00 +33°C° 0 mm 3 m/s 753 mmHg 50%
12:00 +34°C° 0 mm 3 m/s 753 mmHg 47%
13:00 +34°C° 0 mm 3 m/s 753 mmHg 47%
14:00 +34°C° 0 mm 4 m/s 753 mmHg 48%
15:00 +35°C° 0 mm 4 m/s 753 mmHg 48%
16:00 +34°C° 0 mm 3 m/s 752 mmHg 53%
17:00 +33°C° 0 mm 3 m/s 752 mmHg 58%
18:00 +31°C° 0 mm 2 m/s 751 mmHg 63%
19:00 +29°C° 0.1 mm 2 m/s 752 mmHg 68%
20:00 +27°C° 0.1 mm 2 m/s 752 mmHg 74%
21:00 +25°C° 0.1 mm 1 m/s 752 mmHg 79%
22:00 +24°C° 0.4 mm 2 m/s 752 mmHg 82%
23:00 +23°C° 0.4 mm 2 m/s 752 mmHg 86%

Depois de amanhã, 27 Junho, Domingo

Tempo Temperatura Precipitação Vento Pressão Humidade
00:00 +21°C° 0.4 mm 2 m/s 752 mmHg 89%
01:00 +21°C° 0 mm 2 m/s 752 mmHg 88%
02:00 +21°C° 0 mm 2 m/s 753 mmHg 88%
03:00 +21°C° 0 mm 1 m/s 753 mmHg 87%
04:00 +23°C° 0 mm 1 m/s 753 mmHg 83%
05:00 +24°C° 0 mm 1 m/s 753 mmHg 80%
06:00 +25°C° 0 mm 1 m/s 753 mmHg 76%
07:00 +26°C° 0 mm 2 m/s 753 mmHg 71%
08:00 +28°C° 0 mm 2 m/s 753 mmHg 66%
09:00 +29°C° 0 mm 2 m/s 753 mmHg 61%
10:00 +30°C° 0 mm 3 m/s 753 mmHg 58%
11:00 +31°C° 0 mm 3 m/s 753 mmHg 54%
12:00 +33°C° 0 mm 3 m/s 753 mmHg 51%
13:00 +33°C° 0 mm 3 m/s 753 mmHg 50%
14:00 +34°C° 0 mm 3 m/s 753 mmHg 49%
15:00 +34°C° 0 mm 2 m/s 753 mmHg 48%
16:00 +32°C° 0 mm 2 m/s 753 mmHg 53%
17:00 +32°C° 0 mm 2 m/s 752 mmHg 58%
18:00 +31°C° 0 mm 1 m/s 752 mmHg 62%
19:00 +29°C° 0.1 mm 1 m/s 752 mmHg 66%
20:00 +27°C° 0.1 mm 1 m/s 752 mmHg 70%
21:00 +26°C° 0.1 mm 1 m/s 752 mmHg 74%
22:00 +25°C° 0.5 mm 1 m/s 753 mmHg 77%
23:00 +24°C° 0.5 mm 1 m/s 753 mmHg 81%

28 Junho, Segunda-feira

Tempo Temperatura Precipitação Vento Pressão Humidade
00:00 +23°C° 0.5 mm 1 m/s 753 mmHg 84%
01:00 +21°C° 0.2 mm 0 m/s 753 mmHg 84%
02:00 +21°C° 0.2 mm 0 m/s 753 mmHg 85%
03:00 +20°C° 0.2 mm 0 m/s 753 mmHg 85%
04:00 +22°C° 0 mm 0 m/s 753 mmHg 82%
05:00 +23°C° 0 mm 0 m/s 753 mmHg 79%
06:00 +26°C° 0 mm 1 m/s 753 mmHg 76%
07:00 +27°C° 0 mm 1 m/s 753 mmHg 71%
08:00 +29°C° 0 mm 1 m/s 753 mmHg 65%
09:00 +30°C° 0 mm 1 m/s 753 mmHg 59%
10:00 +31°C° 0 mm 2 m/s 753 mmHg 55%
11:00 +32°C° 0 mm 2 m/s 753 mmHg 51%
12:00 +34°C° 0 mm 2 m/s 753 mmHg 48%
13:00 +34°C° 0 mm 2 m/s 753 mmHg 47%
14:00 +35°C° 0 mm 2 m/s 753 mmHg 46%
15:00 +35°C° 0 mm 2 m/s 752 mmHg 45%
16:00 +34°C° 0 mm 2 m/s 752 mmHg 49%
17:00 +33°C° 0 mm 1 m/s 752 mmHg 54%
18:00 +32°C° 0 mm 1 m/s 752 mmHg 59%
19:00 +30°C° 0 mm 1 m/s 752 mmHg 62%
20:00 +29°C° 0 mm 1 m/s 752 mmHg 64%
21:00 +27°C° 0 mm 1 m/s 751 mmHg 66%
22:00 +26°C° 0 mm 1 m/s 751 mmHg 67%
23:00 +26°C° 0 mm 1 m/s 751 mmHg 69%

29 Junho, Terça-feira

Tempo Temperatura Precipitação Vento Pressão Humidade
00:00 +23°C° 0 mm 0 m/s 751 mmHg 71%
01:00 +25°C° 0 mm 1 m/s 751 mmHg 72%
02:00 +25°C° 0 mm 1 m/s 751 mmHg 73%
03:00 +24°C° 0 mm 1 m/s 751 mmHg 75%
04:00 +25°C° 0 mm 1 m/s 751 mmHg 72%
05:00 +26°C° 0 mm 1 m/s 751 mmHg 70%
06:00 +27°C° 0 mm 1 m/s 751 mmHg 68%
07:00 +29°C° 0 mm 2 m/s 751 mmHg 63%
08:00 +30°C° 0 mm 3 m/s 751 mmHg 58%
09:00 +33°C° 0 mm 4 m/s 750 mmHg 54%
10:00 +34°C° 0 mm 4 m/s 750 mmHg 50%
11:00 +35°C° 0 mm 4 m/s 750 mmHg 46%
12:00 +36°C° 0 mm 3 m/s 750 mmHg 43%
13:00 +37°C° 0 mm 3 m/s 750 mmHg 41%
14:00 +37°C° 0 mm 3 m/s 750 mmHg 39%
15:00 +38°C° 0 mm 3 m/s 750 mmHg 38%
16:00 +36°C° 0 mm 3 m/s 750 mmHg 45%
17:00 +35°C° 0 mm 3 m/s 750 mmHg 52%
18:00 +34°C° 0 mm 3 m/s 750 mmHg 59%
19:00 +31°C° 0 mm 2 m/s 750 mmHg 61%
20:00 +29°C° 0 mm 2 m/s 750 mmHg 64%
21:00 +28°C° 0 mm 1 m/s 750 mmHg 66%
22:00 +27°C° 0 mm 1 m/s 750 mmHg 68%
23:00 +26°C° 0 mm 1 m/s 750 mmHg 70%

30 Junho, Quarta-feira

Tempo Temperatura Precipitação Vento Pressão Humidade
00:00 +26°C° 0 mm 1 m/s 750 mmHg 72%
01:00 +25°C° 0.1 mm 1 m/s 750 mmHg 75%
02:00 +25°C° 0.1 mm 1 m/s 751 mmHg 79%
03:00 +24°C° 0.1 mm 1 m/s 751 mmHg 82%
04:00 +25°C° 0.2 mm 1 m/s 751 mmHg 82%
05:00 +25°C° 0.2 mm 1 m/s 751 mmHg 83%
06:00 +26°C° 0.2 mm 1 m/s 751 mmHg 83%
07:00 +27°C° 0 mm 1 m/s 751 mmHg 76%
08:00 +28°C° 0 mm 1 m/s 751 mmHg 70%
09:00 +30°C° 0 mm 1 m/s 751 mmHg 64%
10:00 +31°C° 0 mm 2 m/s 751 mmHg 58%
11:00 +32°C° 0 mm 2 m/s 751 mmHg 53%
12:00 +35°C° 0 mm 2 m/s 751 mmHg 47%
13:00 +35°C° 0 mm 2 m/s 751 mmHg 47%
14:00 +35°C° 0 mm 2 m/s 751 mmHg 46%
15:00 +35°C° 0 mm 2 m/s 750 mmHg 46%
16:00 +35°C° 0 mm 2 m/s 750 mmHg 51%
17:00 +34°C° 0 mm 2 m/s 750 mmHg 56%
18:00 +33°C° 0 mm 3 m/s 750 mmHg 62%
19:00 +30°C° 0 mm 3 m/s 750 mmHg 66%
20:00 +29°C° 0 mm 3 m/s 750 mmHg 71%
21:00 +27°C° 0 mm 3 m/s 750 mmHg 75%
22:00 +26°C° 0.2 mm 2 m/s 750 mmHg 79%
23:00 +25°C° 0.2 mm 2 m/s 750 mmHg 82%
Mostrar mais